Showing default

TIGRISAT, 40043

Orbit data source: Space-Track

TIGRISAT, 40043 is an Iraqi payload satellite in SSO that was launched on Thu, 19 Jun 2014 UTC via a DNEPR launch vehicle from the Orenburg, Russia (OREN). Payload-class satellites include a variety of spacecraft equipped with specific instruments for various scientific and technological missions. These include communications satellites like Starlink; space stations such as the ISS; scientific satellites like the Hubble; Earth observation satellites from companies like Planet Labs, Umbra, and HawkEye 360; GPS; miniature CubeSats for education and research; and military/defense satellites.

Loading next visibility...
Identifier
40043, 2014-033AK
Orbit
SSO
Last TLE update
9 hours ago
Origin
Manufacturer
Roma La Sapienza
Mission
Operational Civil Technology
Bus & Motor
CUBESAT 3U, Unknown motor
Mass
3.6 kg wet, 3.6 kg dry
Launch date (UTC)
2014-06-19 (11 years ago)
Launch vehicle
DNEPR
Launch site
Orenburg, Russia (OREN)
Object type
Payload
Rocket body
Debris
Shape & HBR
Box, 0.3 m
Radar Cross Section
0.075 m², Small (<0.1 m²)

Expand to show TLE details & history

TLE from 9 hours ago
0 TIGRISAT
1 40043U 14033AK  25189.95209778  .00001589  00000-0  19694-3 0  9999
2 40043  97.7382 344.2935 0052673 119.2061 241.4436 14.83069550594713
Epoch: 2025-07-08T22:51Z
TLE epoch observation values (Epoch: 2025-07-08T22:51:01.248Z)
Latitude
-0.00003°
Longitude
74.3986°
Altitude
640.455 km
Speed
7.528 km/s
True Right ascension
22h 57m 10s
True Declination
0° 00' 00"
Sunlit
Object was in full shadow at epoch
Visualization orbit readout
Latitude
-15.63287°
Longitude
-107.40676°
Altitude
617.889 km
Speed
7.553 km/s
Apparent Right ascension
09h 38m 33s
Apparent Declination
-28° 42' 19"
Sunlit
Object is in daylight
Visualization observer readout
Local Sidereal Time
19:58:48
Azimuth
290.997° WNW
Elevation
-66.664°
Doppler factor
1
Orbital elements
Apogee altitude
653.525 km
Perigee altitude
579.837 km
Semi-major axis
6,994.818 km
Eccentricity
0.00527
Inclination
97.7382°
RAAN
344.2935°
Arg. of periapsis
119.2061°
True anomaly
Unknown
Mean anomaly
241.4436°
Eccentric anomaly
Unknown
Mean motion
3.71004 °/min
Orbital period
97.03 mins
BSTAR
0.00019694
Loading maneuver chart data...
Loading SW <> Apogee altitude chart data...
Loading historical data...
Loading historical data...
Loading historical data...
Loading historical data...
Loading historical data...
Loading historical data...
Loading historical data...

TIGRISAT Visibility forecast

Observer location: undefined°, undefined°

Span
Click to sort rows by Start time (UTC) header in descending order
Start Az.
Max El. time (UTC)
Max El. Az.
Max El.
End time (UTC)
End Az.
7 mins2025-07-09 10:18:14.586Z165.543° S2025-07-09 10:22:14.586Z358.512° N44.495°2025-07-09 10:25:14.586Z348.301° N
5 mins2025-07-09 23:43:14.586Z342.765° N2025-07-09 23:45:14.586Z293.225° NW31.936°2025-07-09 23:48:14.586Z225.6° WSW
|